Location: Newark
(52.2090°N, 4.1550°W)
Time: 21:10:24
(UTC+00:00)

Explorer 7 - Pass Details

Date: 20 September 2019
Orbit: 485 x 680 km, 50.3° (Epoch: 18 October)

Event Time Altitude Azimuth Distance (km) Brightness Sun altitude
Rises 05:07:21 0° 282° (WNW) 3,011 - -8.6°
Exits shadow 05:10:05 10° 268° (W) 2,120 9.1 -8.2°
Reaches altitude 10° 05:10:07 10° 268° (W) 2,110 9.1 -8.2°
Maximum altitude 05:13:52 22° 217° (SW) 1,456 8.5 -7.6°
Drops below altitude 10° 05:17:38 10° 167° (SSE) 2,110 9.8 -7.1°
Sets 05:20:24 0° 153° (SSE) 3,012 10.8 -6.6°
